Location: Waco, TX
(31.5480°N, 97.1670°W)
Time: 04:00:54
(UTC-06:00)

ISS - Pass Details

Date: 21 November 2017
Orbit: 401 x 407 km, 51.6° (Epoch: 18 November)

Event Time Altitude Azimuth Distance (km) Brightness Sun altitude
Rises 05:11:49 0° 306° (NW) 2,310 - -23.3°
Reaches altitude 10° 05:13:59 10° 298° (WNW) 1,448 - -22.9°
Maximum altitude 05:17:00 36° 229° (SW) 653 - -22.2°
Exits shadow 05:18:37 21° 176° (S) 952 -1.8 -21.9°
Drops below altitude 10° 05:20:00 10° 161° (SSE) 1,441 -0.7 -21.6°
Sets 05:22:09 0° 153° (SSE) 2,295 0.6 -21.1°
